[ hide orbit diagram ]
For accurate long-term ephemerides, please instead use our Horizons system.This orbit viewer was implemented using two-body methods, and hence should not be used for determining accurate long-term trajectories (over several years or decades) or planetary encounter circumstances.
Orbital Elements at Epoch 2459000.5 (2020-May-31.0) TDB
Reference: JPL 11 (heliocentric ecliptic J2000)
Element | Value | Uncertainty (1-sigma) | Units |
e | .09493155530225772 | 5.7713e-08 | |
a | 2.608735788894164 | 2.0636e-08 | au |
q | 2.361084443081779 | 1.616e-07 | au |
i | .6705365326228341 | 4.8876e-06 | deg |
node | 287.8285229072352 | 0.00066031 | deg |
peri | 170.4191723248059 | 0.00066169 | deg |
M | 263.1237037980384 | 4.3339e-05 | deg |
tp | 2459414.650888002956 (2021-Jul-19.15088800) | 0.00018718 | TDB |
period | 1539.017546358726 4.21 | 1.8261e-05 5e-08 | d yr |
n | .2339154617513947 | 2.7755e-09 | deg/d |
Q | 2.85638713470655 | 2.2595e-08 | au |
|
| | Orbit Determination Parameters
Additional Information
|
[ show covariance matrix ]
Physical Parameter Table
Parameter |
Symbol |
Value |
Units |
Sigma |
Reference |
Notes |
absolute magnitude |
H |
17.6 |
|
n/a |
MPO446571 |
|
|
351048 (2003 SQ240) Discovered 2003-Sep-27 by Spacewatch at Kitt Peak |
Reference: 20130127/Numbers.arc | Last Updated: 2013-01-31 |
|
[ show close-approach data ]
|